User: anonymous   Login
Location: Unspecified
(0.0000°N, 0.0000°E)
Time: 09:35:53
(UTC+00:00)
Language:

ESSA 3 - Orbit

View from above orbital plane
View from above orbital plane
View from above satellite
View from above satellite

Ground track
Ground track

The orbit data is extracted from the following two-line orbital elements,

1  2435U 66087A   17295.80010861 -.00000043 +00000-0 -94313-5 0  9993
2  2435 101.0461 002.4997 0063610 244.8280 223.3367 12.56839385342098
Epoch (UTC): 22 October 2017 19:12:09
Eccentricity: 0.0063610
inclination: 101.0461°
perigee height: 1386 km
apogee height: 1486 km
right ascension of ascending node: 2.4997°
argument of perigee: 244.8280°
revolutions per day: 12.56839385
mean anomaly at epoch: 223.3367°
orbit number at epoch: 34209

The dashed part of the orbit path shows where the satellite is in the earth's shadow,  

DLR